[[{"header":{"parameterUnit":"m.s-1","parameterCategory":2,"la1":30.2992,"la2":30.254,"lo1":-89.0895,"lo2":-89.0443,"dy":0.0025,"dx":0.0025,"nx":19,"ny":19,"refTime":"2026-05-07T03:00:00:Z","depth":"0","parameterNumber":2,"parameterNumberName":"U-component_of_CURRENTS"},"data":[0,0,0,0.181,0.1811,0.1885,0.1885,0.1948,0.1948,0,0,0,0,0,0,0,0,0,0,0,0.1776,0.1777,0.1809,0.1812,0.1885,0.1885,0.1948,0.1948,0,0,0,0,0,0,0,0,0,0,0,0.1776,0.1777,0.1777,0.1812,0.1885,0.1885,0.1947,0.1898,0,0,0,0,0,0,0,0,0,0,0.1829,0.18,0.1776,0.1777,0.1812,0.1885,0.1885,0.1896,0.1901,0.1908,0,0.1922,0,0.1944,0.1952,0.1953,0,0,0,0.1803,0.1795,0.1825,0.1777,0.1813,0.1885,0.1849,0.1899,0.1905,0.1915,0.1924,0.1926,0.1945,0.1953,0.1953,0.2118,0.2119,0,0,0.1799,0.1779,0.1821,0.1829,0.1836,0.1847,0.1852,0.1903,0.1904,0.1924,0.1928,0.1946,0.1953,0.1954,0.2116,0.2118,0,0,0,0.1793,0.1776,0.1805,0.1826,0.1846,0.185,0.1855,0.1901,0.1914,0.1929,0.1947,0.1954,0.1954,0.2115,0.2117,0.2203,0,0,0,0.179,0.1774,0.1803,0.1791,0.1845,0.1878,0.1852,0.191,0.1917,0.1947,0.1954,0.1955,0.2113,0.2116,0.2197,0.2229,0,0,0,0.1772,0.1772,0.1784,0.179,0.1828,0.1878,0.1893,0.1912,0.1928,0.1953,0.1955,0.2112,0.2115,0.2193,0.2221,0.2303,0,0,0,0.1745,0.1767,0.1783,0.1815,0.1828,0.1901,0.1893,0.1926,0.1947,0.1954,0.2114,0.2117,0.2191,0.2216,0.2298,0.2216,0.2233,0,0,0.1758,0.1767,0.1788,0.1806,0.1882,0.189,0.1996,0.2004,0.2006,0.2089,0.2093,0.2199,0.222,0.2302,0.2398,0.2409,0,0,0,0.1784,0.1811,0.1831,0.1882,0.1927,0.2015,0.2039,0.2084,0.2171,0.2037,0.224,0.2251,0.2299,0.224,0.2251,0.2319,0.2131,0.2131,0.2131,0.1796,0.1836,0.1888,0.1958,0.2014,0.2109,0.2189,0.2267,0.2243,0.2315,0.2351,0.2512,0.2453,0.2459,0.2532,0.2389,0.239,0.239,0.239,0.1843,0.1876,0.1947,0.2007,0.2104,0.2201,0.2362,0.2392,0.2549,0.2493,0.2536,0.2371,0.2475,0.2549,0.2396,0.2395,0.2395,0.2394,0.2394,0.1856,0.1874,0.1909,0.2002,0.2125,0.2247,0.2392,0.2521,0.2617,0.2687,0.2617,0.2613,0.265,0.2708,0.2708,0.2709,0.2709,0.271,0.271,0.1831,0.1874,0.1897,0.1999,0.2047,0.2183,0.2411,0.2518,0.2666,0.2715,0.2714,0.2726,0.2609,0.2564,0.2718,0.2717,0.2716,0.2715,0.2715,0.1832,0.1827,0.1851,0.1876,0.1986,0.2035,0.2271,0.2471,0.263,0.2682,0.2828,0.2733,0.2697,0.2686,0.2644,0.281,0.281,0.281,0.281,0.1802,0.1816,0.1789,0.1795,0.1858,0.1961,0.2039,0.2293,0.2647,0.2821,0.2912,0.2828,0.2821,0.2788,0.2775,0.2734,0.2919,0.292,0.292,0.1784,0.177,0.1724,0.1726,0.1774,0.1835,0.1866,0.2097,0.2651,0.2937,0.304,0.3035,0.2923,0.2905,0.2851,0.2828,0.2757,0,0]},{"header":{"parameterUnit":"m.s-1","parameterCategory":2,"la1":30.2992,"la2":30.254,"lo1":-89.0895,"lo2":-89.0443,"dy":0.0025,"dx":0.0025,"nx":19,"ny":19,"refTime":"2026-05-07T03:00:00:Z","depth":"0","parameterNumber":3,"parameterNumberName":"V-component_of_CURRENTS"},"data":[0,0,0,0.0051,0.005,-0.0009,-0.001,-0.0067,-0.0068,0,0,0,0,0,0,0,0,0,0,0,0.0072,0.0072,0.0051,0.005,-0.0009,-0.001,-0.0067,-0.0068,0,0,0,0,0,0,0,0,0,0,0,0.0072,0.0072,0.0072,0.005,-0.0009,-0.001,-0.0067,-0.003,0,0,0,0,0,0,0,0,0,0,0.0024,0.0047,0.0072,0.0072,0.005,-0.0009,-0.001,-0.0028,-0.0032,-0.0031,0,-0.0032,0,-0.0045,-0.007,-0.007,0,0,0,0.0037,0.005,0.0036,0.0072,0.005,-0.0009,0.0014,-0.0031,-0.0035,-0.0035,-0.0033,-0.0035,-0.0046,-0.007,-0.007,0.0063,0.0065,0,0,0.0041,0.0057,0.0039,0.0033,0.0045,0.0016,0.0012,-0.0034,-0.0033,-0.0033,-0.0037,-0.0047,-0.007,-0.007,0.0061,0.0063,0,0,0,0.0059,0.006,0.0045,0.0036,0.0027,0.0014,0.001,-0.0032,-0.0036,-0.0037,-0.0047,-0.007,-0.0071,0.0059,0.0062,0.0264,0,0,0,0.006,0.0071,0.0047,0.0056,0.0028,-0.0005,0.0013,-0.0033,-0.0038,-0.0047,-0.007,-0.0071,0.0057,0.0061,0.0254,0.034,0,0,0,0.0073,0.0072,0.0069,0.0057,0.0037,-0.0005,-0.0013,-0.0035,-0.0044,-0.007,-0.0071,0.0056,0.006,0.0246,0.0326,0.0395,0,0,0,0.0086,0.0137,0.007,0.0115,0.0038,0.0075,-0.0013,-0.0015,-0.0029,-0.0071,0.0058,0.0062,0.0243,0.0317,0.0387,0.0407,0.0446,0,0,0.0171,0.0147,0.0174,0.0114,0.0186,0.0081,0.019,0.0113,0.004,0.0067,0.0069,0.0257,0.0325,0.0393,0.0641,0.0674,0,0,0,0.0215,0.0264,0.0261,0.0282,0.0251,0.0302,0.0228,0.0227,0.0255,0.0053,0.0284,0.032,0.0356,0.0352,0.0379,0.0214,0.0081,0.008,0.008,0.0408,0.0385,0.0468,0.047,0.0488,0.0464,0.0506,0.0506,0.0397,0.046,0.0504,0.0723,0.0725,0.0745,0.0577,0.0527,0.0528,0.0528,0.0529,0.0615,0.0668,0.0663,0.074,0.0738,0.0817,0.0834,0.0785,0.0853,0.0737,0.0761,0.0591,0.0786,0.0596,0.0542,0.054,0.0538,0.0537,0.0536,0.0776,0.0792,0.0827,0.092,0.1026,0.1026,0.1158,0.1119,0.1047,0.1092,0.1001,0.0996,0.0804,0.1076,0.1077,0.1078,0.1079,0.1079,0.108,0.0885,0.0923,0.1015,0.1104,0.1172,0.1276,0.1332,0.1366,0.1322,0.1229,0.1227,0.0882,0.0888,0.0838,0.1092,0.1089,0.1088,0.1087,0.1086,0.1037,0.1023,0.1168,0.1242,0.1403,0.1561,0.1584,0.1626,0.16,0.158,0.1174,0.1281,0.1202,0.1178,0.1134,0.1449,0.1449,0.1449,0.1449,0.1103,0.1121,0.1283,0.1427,0.1592,0.1702,0.188,0.1863,0.1577,0.137,0.1232,0.1101,0.1093,0.0997,0.0977,0.0924,0.1178,0.1177,0.1177,0.1172,0.1213,0.1348,0.1491,0.1685,0.1862,0.2029,0.2049,0.153,0.1145,0.1008,0.102,0.0799,0.08,0.0615,0.06,0.0499,0,0]}],[{"header":{"parameterUnit":"m.s-1","parameterCategory":2,"la1":30.2992,"la2":30.254,"lo1":-89.0895,"lo2":-89.0443,"dy":0.0025,"dx":0.0025,"nx":19,"ny":19,"refTime":"2026-05-07T03:00:00:Z","depth":"2","parameterNumber":2,"parameterNumberName":"U-component_of_CURRENTS"},"data":[0,0,0,0.1796,0.1798,0.1867,0.1867,0.1933,0.1933,0,0,0,0,0,0,0,0,0,0,0,0.1766,0.1766,0.1796,0.1798,0.1867,0.1867,0.1933,0.1933,0,0,0,0,0,0,0,0,0,0,0,0.1766,0.1766,0.1767,0.1799,0.1867,0.1867,0.1933,0.1885,0,0,0,0,0,0,0,0,0,0,0.182,0.1792,0.1766,0.1767,0.1799,0.1867,0.1867,0.1883,0.1888,0.1897,0,0.191,0,0.1929,0.1938,0.1938,0,0,0,0.1792,0.1787,0.1814,0.1767,0.18,0.1867,0.1834,0.1886,0.1891,0.1904,0.1911,0.1914,0.193,0.1938,0.1939,0.21,0.2101,0,0,0.1788,0.177,0.181,0.1818,0.182,0.1832,0.1836,0.1889,0.1891,0.1911,0.1916,0.1931,0.1939,0.1939,0.2099,0.21,0,0,0,0.1781,0.1767,0.1793,0.1815,0.1833,0.1834,0.1839,0.1888,0.1899,0.1917,0.1932,0.1939,0.194,0.2098,0.21,0.2188,0,0,0,0.1779,0.1764,0.1792,0.178,0.1832,0.1864,0.1837,0.1895,0.1902,0.1932,0.1939,0.1941,0.2096,0.2099,0.2183,0.221,0,0,0,0.1762,0.1763,0.1773,0.1779,0.1814,0.1863,0.1877,0.1897,0.1912,0.1938,0.1941,0.2095,0.2098,0.2178,0.2203,0.2273,0,0,0,0.1738,0.1756,0.1772,0.1799,0.1814,0.1883,0.1877,0.1912,0.1934,0.194,0.2096,0.2099,0.2176,0.2198,0.2268,0.2129,0.2141,0,0,0.1748,0.1756,0.1774,0.1791,0.1864,0.1873,0.1971,0.1985,0.1991,0.2072,0.2076,0.2185,0.2202,0.2272,0.2304,0.2309,0,0,0,0.1769,0.1792,0.1811,0.1861,0.1906,0.199,0.2014,0.2059,0.2151,0.2022,0.2222,0.223,0.2271,0.2178,0.2184,0.2114,0.2113,0.2113,0.2113,0.1775,0.1815,0.1867,0.1933,0.1989,0.208,0.2163,0.2243,0.2216,0.2291,0.233,0.248,0.2385,0.2387,0.2368,0.2368,0.2369,0.2369,0.2369,0.1817,0.1856,0.1928,0.1989,0.2086,0.2181,0.2337,0.2367,0.2517,0.2464,0.25,0.2311,0.2398,0.2377,0.2375,0.2374,0.2374,0.2373,0.2373,0.1835,0.1858,0.1897,0.1994,0.2124,0.2235,0.2392,0.2503,0.2591,0.266,0.2536,0.2531,0.2509,0.2666,0.2667,0.2667,0.2668,0.2668,0.2668,0.1821,0.1868,0.1889,0.1998,0.2049,0.2183,0.2416,0.2525,0.2613,0.2625,0.2623,0.258,0.2571,0.2528,0.2676,0.2674,0.2673,0.2673,0.2672,0.1825,0.1824,0.1849,0.1873,0.1985,0.2033,0.2266,0.2438,0.258,0.2593,0.2612,0.261,0.2564,0.2556,0.2514,0.265,0.265,0.265,0.265,0.1797,0.181,0.18,0.1812,0.1858,0.1964,0.2003,0.2131,0.233,0.2365,0.2377,0.226,0.2267,0.2197,0.2198,0.2145,0.2185,0.2184,0.2183,0.1772,0.1771,0.1746,0.1766,0.1791,0.1841,0.1797,0.1776,0.1942,0.2163,0.2278,0.2622,0.2477,0.2478,0.2388,0.2382,0.2304,0,0]},{"header":{"parameterUnit":"m.s-1","parameterCategory":2,"la1":30.2992,"la2":30.254,"lo1":-89.0895,"lo2":-89.0443,"dy":0.0025,"dx":0.0025,"nx":19,"ny":19,"refTime":"2026-05-07T03:00:00:Z","depth":"2","parameterNumber":3,"parameterNumberName":"V-component_of_CURRENTS"},"data":[0,0,0,-0.004,-0.0041,-0.01,-0.0101,-0.0171,-0.0172,0,0,0,0,0,0,0,0,0,0,0,-0.0019,-0.0019,-0.004,-0.0041,-0.01,-0.0101,-0.0171,-0.0172,0,0,0,0,0,0,0,0,0,0,0,-0.0019,-0.0019,-0.0019,-0.0041,-0.01,-0.0101,-0.0171,-0.0131,0,0,0,0,0,0,0,0,0,0,-0.0076,-0.0051,-0.0019,-0.0019,-0.0042,-0.01,-0.0101,-0.0129,-0.0133,-0.0139,0,-0.0139,0,-0.0151,-0.0175,-0.0175,0,0,0,-0.0055,-0.0047,-0.0062,-0.0019,-0.0042,-0.01,-0.0077,-0.0132,-0.0136,-0.0144,-0.014,-0.0143,-0.0152,-0.0175,-0.0176,-0.0097,-0.0096,0,0,-0.0051,-0.0035,-0.0058,-0.0064,-0.0045,-0.0075,-0.0079,-0.0135,-0.0135,-0.014,-0.0145,-0.0153,-0.0176,-0.0176,-0.0098,-0.0097,0,0,0,-0.0033,-0.0032,-0.0046,-0.0061,-0.0069,-0.0077,-0.0081,-0.0133,-0.0137,-0.0145,-0.0154,-0.0176,-0.0177,-0.01,-0.0098,0.0059,0,0,0,-0.0032,-0.002,-0.0044,-0.0036,-0.0067,-0.0102,-0.0078,-0.0133,-0.014,-0.0154,-0.0176,-0.0177,-0.0101,-0.0099,0.0052,0.0147,0,0,0,-0.0019,-0.0019,-0.0022,-0.0034,-0.0054,-0.0101,-0.0109,-0.0135,-0.0144,-0.0175,-0.0177,-0.0102,-0.0099,0.0045,0.0135,0.0157,0,0,0,-0.0006,0.0033,-0.0021,0.0008,-0.0053,-0.0033,-0.0109,-0.0118,-0.0137,-0.0176,-0.0101,-0.0098,0.0043,0.0127,0.0151,0.0007,0.0024,0,0,0.0059,0.0041,0.0057,0.0008,0.0058,-0.0027,0.0037,-0.0034,-0.0089,-0.0088,-0.0087,0.0054,0.0134,0.0156,0.0177,0.0189,0,0,0,0.0088,0.0118,0.0113,0.0125,0.0101,0.0117,0.0052,0.0043,0.0052,-0.0085,0.007,0.0116,0.0124,0.0025,0.0035,-0.0084,-0.0084,-0.0085,-0.0085,0.0225,0.0207,0.0271,0.026,0.0262,0.0229,0.0256,0.0243,0.0153,0.0195,0.0255,0.0401,0.03,0.0305,0.0252,0.0253,0.0253,0.0254,0.0254,0.0356,0.0404,0.0404,0.0462,0.0456,0.051,0.0489,0.0449,0.0505,0.0415,0.0413,0.0211,0.0325,0.0267,0.0264,0.0263,0.0261,0.026,0.026,0.0484,0.0504,0.0541,0.0615,0.0723,0.0696,0.0797,0.0768,0.0669,0.0713,0.0506,0.05,0.0468,0.0671,0.0672,0.0672,0.0673,0.0673,0.0673,0.0564,0.061,0.0687,0.079,0.0863,0.0947,0.0984,0.0948,0.0788,0.0687,0.0683,0.054,0.0527,0.0491,0.0682,0.0681,0.0679,0.0679,0.0678,0.0643,0.066,0.0773,0.0854,0.0967,0.1048,0.11,0.0943,0.0899,0.0767,0.0635,0.0633,0.0556,0.0543,0.0507,0.069,0.0691,0.069,0.069,0.0632,0.0685,0.0776,0.0889,0.0962,0.1044,0.1004,0.0861,0.0681,0.0573,0.0578,0.0459,0.046,0.037,0.0361,0.0318,0.0453,0.0453,0.0453,0.0584,0.066,0.0733,0.0874,0.0942,0.095,0.0889,0.077,0.0528,0.0449,0.0596,0.0663,0.0494,0.0494,0.0352,0.034,0.0268,0,0]}],[{"header":{"parameterUnit":"m.s-1","parameterCategory":2,"la1":30.2992,"la2":30.254,"lo1":-89.0895,"lo2":-89.0443,"dy":0.0025,"dx":0.0025,"nx":19,"ny":19,"refTime":"2026-05-07T03:00:00:Z","depth":"4","parameterNumber":2,"parameterNumberName":"U-component_of_CURRENTS"},"data":[0,0,0,0.1016,0.102,0.1233,0.1234,0.1381,0.1381,0,0,0,0,0,0,0,0,0,0,0,0.0965,0.0967,0.1015,0.102,0.1233,0.1234,0.138,0.1381,0,0,0,0,0,0,0,0,0,0,0,0.0964,0.0966,0.0969,0.1021,0.1233,0.1234,0.138,0.1255,0,0,0,0,0,0,0,0,0,0,0.1065,0.1028,0.0966,0.0969,0.1022,0.1232,0.1234,0.125,0.1263,0.1242,0,0.1292,0,0.132,0.1387,0.1387,0,0,0,0.1037,0.1019,0.1071,0.0969,0.1023,0.1232,0.1142,0.1258,0.1272,0.1258,0.1294,0.13,0.1322,0.1387,0.1387,0.1473,0.1473,0,0,0.1026,0.1003,0.1062,0.108,0.1097,0.1135,0.1148,0.1268,0.1289,0.1295,0.1304,0.1324,0.1388,0.1388,0.1473,0.1473,0,0,0,0.098,0.0995,0.1049,0.1074,0.1112,0.114,0.1156,0.1285,0.1302,0.1305,0.1326,0.1388,0.1389,0.1472,0.1473,0.1511,0,0,0,0.0974,0.0967,0.1043,0.1032,0.1111,0.1216,0.1169,0.1295,0.1309,0.1325,0.1388,0.139,0.1472,0.1473,0.1509,0.1529,0,0,0,0.0952,0.0964,0.0994,0.103,0.1112,0.1215,0.1242,0.13,0.1319,0.1387,0.139,0.1472,0.1473,0.1508,0.1526,0.1492,0,0,0,0.0913,0.0956,0.0995,0.1057,0.111,0.1202,0.1242,0.1325,0.1383,0.1388,0.1472,0.1473,0.1507,0.1524,0.1491,0.1321,0,0,0,0.0932,0.0958,0.0993,0.1032,0.1109,0.1172,0.1268,0.1365,0.1385,0.1425,0.1429,0.151,0.1526,0.1492,0.1371,0,0,0,0,0.0975,0.1001,0.1034,0.1099,0.1168,0.1257,0.134,0.138,0.1467,0.1422,0.1516,0.1525,0.1501,0.14,0.1477,0.1477,0.1477,0.1477,0.1476,0.0952,0.1002,0.1051,0.1126,0.1192,0.1317,0.1388,0.1455,0.1478,0.1521,0.156,0.1568,0.1466,0.1562,0.1563,0.1563,0.1563,0.1563,0.1563,0.0931,0.0944,0.1038,0.1108,0.1218,0.1309,0.1428,0.1486,0.1576,0.1597,0.1571,0.1455,0.1567,0.1566,0.1566,0.1565,0.1565,0.1565,0.1565,0.0847,0.0863,0.093,0.1029,0.1165,0.1313,0.1381,0.1514,0.1579,0.1619,0.1478,0.1578,0.1567,0.1604,0.1604,0.1604,0.1604,0.1604,0.1604,0.0723,0.078,0.0828,0.0966,0.1049,0.1177,0.1375,0.1407,0.1516,0.1502,0.1632,0.1581,0.158,0.1568,0.1603,0.1603,0.1603,0.1603,0.1603,0.0614,0.0657,0.07,0.0775,0.0947,0.1022,0.1198,0.1284,0.1313,0.1304,0.1407,0.1417,0.1376,0.1379,0.1359,0.1333,0.1331,0.1329,0,0.0541,0.0566,0.063,0.0695,0.0771,0.0933,0.0945,0.104,0.1164,0.1151,0.1281,0.1394,0.1402,0.1352,0.1351,0.1324,0,0,0,0.049,0.0527,0.0556,0.0645,0.0724,0.0823,0.0955,0.0975,0.1154,0.114,0.1276,0.129,0.1417,0.1601,0.1561,0.1559,0.1538,0,0]},{"header":{"parameterUnit":"m.s-1","parameterCategory":2,"la1":30.2992,"la2":30.254,"lo1":-89.0895,"lo2":-89.0443,"dy":0.0025,"dx":0.0025,"nx":19,"ny":19,"refTime":"2026-05-07T03:00:00:Z","depth":"4","parameterNumber":3,"parameterNumberName":"V-component_of_CURRENTS"},"data":[0,0,0,0.0017,0.0016,-0.0063,-0.0063,-0.0175,-0.0176,0,0,0,0,0,0,0,0,0,0,0,0.0042,0.0041,0.0017,0.0015,-0.0063,-0.0064,-0.0175,-0.0176,0,0,0,0,0,0,0,0,0,0,0,0.0042,0.0041,0.0041,0.0015,-0.0063,-0.0064,-0.0174,-0.0115,0,0,0,0,0,0,0,0,0,0,-0.0039,-0.001,0.0041,0.0041,0.0015,-0.0063,-0.0064,-0.0112,-0.0119,-0.0139,0,-0.0147,0,-0.0158,-0.0182,-0.0183,0,0,0,0.0004,-0.0005,-0.0023,0.0041,0.0014,-0.0063,-0.0031,-0.0116,-0.0123,-0.0147,-0.0148,-0.0152,-0.016,-0.0183,-0.0183,-0.031,-0.031,0,0,0.0009,0.0022,-0.0018,-0.0028,-0.0001,-0.0028,-0.0033,-0.012,-0.0128,-0.0149,-0.0155,-0.0162,-0.0184,-0.0184,-0.0309,-0.031,0,0,0,0.0029,0.0025,0.0008,-0.0023,-0.0034,-0.003,-0.0036,-0.0124,-0.0129,-0.0156,-0.0163,-0.0184,-0.0185,-0.0308,-0.0309,-0.0328,0,0,0,0.0031,0.0038,0.0011,0.0017,-0.0032,-0.0078,-0.0037,-0.0123,-0.0133,-0.0163,-0.0184,-0.0186,-0.0308,-0.0309,-0.0326,-0.0314,0,0,0,0.0044,0.0039,0.0032,0.0018,-0.0011,-0.0077,-0.0088,-0.0125,-0.0137,-0.0183,-0.0187,-0.0307,-0.0309,-0.0324,-0.0312,-0.0328,0,0,0,0.0057,0.0029,0.0032,-0.0001,-0.001,-0.0067,-0.0087,-0.0128,-0.0164,-0.0185,-0.0308,-0.0309,-0.0324,-0.0311,-0.0327,-0.0176,0,0,0,0.0024,0.0025,0.0005,0.0006,-0.0059,-0.0057,-0.0133,-0.0178,-0.0199,-0.028,-0.0283,-0.0327,-0.0312,-0.0328,-0.0267,0,0,0,0,-0.0004,-0.0033,-0.0045,-0.0082,-0.0102,-0.0143,-0.0183,-0.0218,-0.0293,-0.0226,-0.0352,-0.0343,-0.0352,-0.0262,-0.0317,-0.0316,-0.0316,-0.0316,-0.0316,-0.0107,-0.0103,-0.0146,-0.0157,-0.0191,-0.0216,-0.0258,-0.0319,-0.0325,-0.0368,-0.0378,-0.0427,-0.0336,-0.0411,-0.0412,-0.0412,-0.0412,-0.0412,-0.0412,-0.0195,-0.0196,-0.0225,-0.0261,-0.0275,-0.033,-0.0382,-0.0385,-0.0445,-0.044,-0.0449,-0.0313,-0.0414,-0.0414,-0.0414,-0.0413,-0.0413,-0.0413,-0.0413,-0.0265,-0.0237,-0.0284,-0.031,-0.0359,-0.0373,-0.0381,-0.0413,-0.0468,-0.0467,-0.0358,-0.0439,-0.0414,-0.0462,-0.0462,-0.0462,-0.0462,-0.0462,-0.0463,-0.0256,-0.029,-0.0286,-0.0329,-0.0328,-0.0337,-0.0352,-0.0351,-0.0391,-0.0355,-0.0455,-0.0444,-0.0442,-0.0418,-0.0463,-0.0463,-0.0463,-0.0463,-0.0463,-0.0243,-0.0241,-0.0234,-0.0231,-0.0205,-0.0205,-0.0248,-0.0233,-0.0223,-0.0226,-0.0307,-0.0314,-0.0288,-0.029,-0.0258,-0.0258,-0.0256,-0.0255,0,-0.0195,-0.02,-0.0154,-0.0124,-0.0066,-0.0113,-0.003,-0.0053,-0.0139,-0.0141,-0.024,-0.0333,-0.0337,-0.0308,-0.0307,-0.0269,0,0,0,-0.0153,-0.014,-0.0107,-0.0083,-0.0007,0.0015,-0.001,0.0007,-0.015,-0.0083,-0.0209,-0.0221,-0.0295,-0.0465,-0.0442,-0.044,-0.0399,0,0]}]]